Location: Hines Observatory
(31.5604°N, 83.5172°W)
Time: 02:44:25
(UTC-04:00)

Daily predictions for brighter satellites

Satellite Brightness Start Highest point End
(mag) Time Altitude Azimuth Time Altitude Azimuth Time Altitude Azimuth
ATLAS CENTAUR R/B 4.5 02:35:20 82° NNE 02:35:20 82° NNE 02:58:16 10° NE
ATLAS 3B R/B 3.4 03:32:22 49° E 03:32:22 49° E 03:37:59 10° NE
CZ-2D R/B 3.6 03:43:15 10° N 03:45:57 31° N 03:45:57 31° N
SL-16 R/B 3.3 03:54:04 43° NNW 03:54:04 43° NNW 03:58:07 10° NNW
ADEOS II 3.8 03:54:15 10° NE 03:58:34 26° E 03:58:59 25° ESE
USA 215 4.1 03:58:02 10° ENE 04:03:59 37° SE 04:04:19 37° SE
Cosmos 1980 Rocket 3.9 04:05:11 10° NNW 04:07:05 22° NNW 04:07:05 22° NNW
SEDSat Delta rocket 3.9 04:17:18 74° E 04:17:18 74° E 04:23:20 10° E
Resurs 1-4 Rocket 3.7 04:12:29 10° N 04:15:03 25° NNW 04:15:03 25° NNW
Meteor 1-21 4.4 04:19:27 70° NNE 04:19:27 70° NNE 04:24:24 10° N
Centaur AC-125 4.2 04:23:09 54° S 04:24:02 58° SSE 04:51:36 10° E
SL-16 R/B 3.1 04:21:13 10° N 04:26:40 46° ENE 04:32:05 10° SE
Cosmos 1937 Rocket 4.1 04:23:07 10° NNW 04:26:50 48° NNW 04:26:50 48° NNW
USA 238 DEB 4.1 04:38:42 43° WNW 04:39:17 44° NW 04:45:52 10° NNE
USA 238 4.1 04:38:47 43° WNW 04:39:23 44° NW 04:45:59 10° NNE
Cosmos 2322 Rocket 2.7 04:35:11 10° NNW 04:40:44 59° ENE 04:46:15 10° SSE
ARIANE 5 R/B 3.8 04:40:26 10° N 04:43:46 28° NW 04:43:46 28° NW
Cosmos 1833 4.3 04:46:46 53° S 04:48:08 76° ESE 04:53:55 10° NNE
Cosmos 292 Rocket 4.4 04:50:53 44° NW 04:50:53 44° NW 04:54:46 10° N
Cosmos 1707 3.8 04:50:01 38° ESE 04:50:33 41° E 04:54:14 10° NNE
Cosmos 836 Rocket 4.4 04:51:58 66° S 04:52:44 87° ESE 04:57:57 10° NNE
Meteosat 1 Rocket2 3.8 04:52:57 58° SW 04:53:53 67° S 05:02:00 10° E
Delta 2 Rocket 4.1 05:03:27 48° W 05:05:05 78° NNW 05:10:45 10° ENE
Okean O Rocket 4.0 05:02:27 10° NE 05:05:37 20° E 05:08:46 10° SE
Cosmos 2150 Rocket 4.1 05:01:00 10° NNW 05:06:20 56° WSW 05:07:35 45° SSW
Cosmos 44 3.5 05:07:42 10° NW 05:12:55 57° WSW 05:18:11 10° SSE
Cosmos 2266 Rocket 4.0 05:08:17 10° NNW 05:14:15 58° W 05:17:55 24° SSW
Cosmos 2298 Rocket 4.5 05:09:20 10° NNW 05:13:53 39° W 05:13:53 39° W
PSLV R/B 3.6 05:11:30 10° NNE 05:15:42 72° ESE 05:17:42 30° S
NOSS 3-2 (C) 3.6 05:14:35 38° WSW 05:16:27 53° WNW 05:22:39 10° NNE
Cosmos 540 Rocket 4.0 05:18:27 35° W 05:19:06 37° WNW 05:23:52 10° N
ATLAS 3B R/B 3.9 05:19:38 23° W 05:22:06 27° NW 05:27:56 10° N
PSLV R/B 4.2 05:22:14 10° NNE 05:25:59 58° E 05:28:37 18° S
Cosmos 1953 2.4 05:24:28 10° NNW 05:28:26 53° W 05:29:48 35° SSW
Cosmos 1602 Rocket 4.4 05:28:51 30° WNW 05:28:51 30° WNW 05:32:38 10° NNW
Cosmos 1812 Rocket 3.5 05:25:15 10° N 05:29:41 71° W 05:34:00 10° S
ATLAS CENTAUR R/B 3.1 05:27:08 10° N 05:31:24 39° ENE 05:35:51 10° SE
NOSS 3-2 (A) 4.5 05:30:03 23° W 05:32:16 29° NW 05:37:42 10° N
MOS 1-B 4.3 05:28:17 10° NNE 05:34:07 88° WNW 05:39:56 10° SSW
Cosmos 1758 Rocket 3.6 05:31:21 11° S 05:35:25 76° E 05:39:46 10° N
ADEOS II 3.0 05:33:40 10° N 05:38:11 30° WNW 05:39:56 24° WSW
CENTAUR R/B 2.3 05:36:12 21° SSW 05:40:15 86° WNW 05:46:47 10° NNE
Cosmos 1733 4.1 05:39:07 10° NNW 05:42:29 29° W 05:42:48 28° W
USA 215 3.7 05:40:44 10° NNE 05:46:59 50° NW 05:51:41 18° WSW
SJ 16-02 1.5 05:44:26 10° NNW 05:48:41 49° WSW 05:52:56 10° S
Cosmos 44 Rocket 3.9 05:45:56 10° NW 05:50:38 36° WSW 05:55:21 10° S
Cosmos 2360 Rocket 2.1 05:46:40 10° NNW 05:52:18 79° WSW 05:57:54 10° SSE
Meteor 2-5 Rocket 3.7 05:52:20 10° SSW 05:57:47 64° W 06:03:19 10° N
Cosmos 2219 3.3 05:52:30 10° SSW 05:58:10 81° ESE 06:03:55 10° NNE
CRYOSAT 2 4.3 05:53:47 10° S 05:58:36 72° W 06:03:26 10° N
Aureole 2 Rocket 2.9 05:55:46 10° NNW 05:59:10 38° WSW 06:02:19 10° S
CZ-4B R/B 3.9 05:57:56 10° NNE 06:01:52 81° ESE 06:05:57 10° S
SEDSat Delta rocket 4.1 05:57:25 12° W 06:03:16 59° SSW 06:09:57 10° ESE
Cosmos 192 4.3 06:00:06 10° SSW 06:04:58 67° WNW 06:09:51 10° N
Cosmos 2292 Rocket 2.5 06:05:07 10° N 06:08:19 86° WSW 06:11:13 10° S
SL-16 R/B 3.5 06:06:34 10° WNW 06:10:19 18° W 06:14:03 10° SW
BREEZE-M TANK 3.5 06:05:38 10° SW 06:11:21 38° SSE 06:14:02 10° ENE
Cosmos 773 Rocket 4.0 06:07:14 10° SSW 06:12:25 89° E 06:17:36 10° NNE
Cosmos 2333 Rocket 4.2 06:08:03 10° N 06:13:10 34° ENE 06:18:17 10° SE
Cosmos 2227 Rocket 3.6 06:08:17 10° S 06:13:30 40° ESE 06:18:43 10° NE
ATLAS 5 CENTAUR R/B 3.3 06:05:33 12° WSW 06:15:24 32° SSW 06:19:40 10° SE
Cosmos 2297 Rocket 3.8 06:10:52 10° S 06:16:00 37° ESE 06:21:08 10° NE
Cosmos 1125 Rocket 4.1 06:11:13 10° NW 06:16:01 36° W 06:20:46 10° SSW
ATLAS 2A CENTAUR R/B 4.5 05:48:44 15° WSW 06:17:35 58° S 06:24:27 10° E
Cosmos 2219 Rocket 3.6 06:12:47 10° N 06:18:06 43° ENE 06:23:23 10° SE
Meteor 1-24 Rocket 3.6 06:12:57 10° SSW 06:18:12 65° W 06:23:30 10° N
COSMOS 2428 3.2 06:12:47 10° NNW 06:18:28 68° ENE 06:24:04 10° SSE
ATLAS CENTAUR Rocket 4.3 06:19:08 10° SSE 06:20:06 11° SE 06:21:10 10° SE
Cosmos-2242 2.9 06:19:27 10° N 06:23:42 80° W 06:27:56 10° S
Cosmos 2322 Rocket 3.7 06:21:28 10° WNW 06:24:09 14° W 06:26:50 10° SW
Atlas Centaur 2 4.2 06:17:23 10° SSW 06:24:50 34° SSE 06:32:00 10° E
IDEFIX/ARIANE 42P 2.8 06:25:35 10° NNE 06:30:49 80° ESE 06:36:04 10° S
IRS-1C Rocket 4.1 06:30:59 10° N 06:36:12 67° WNW 06:41:24 10° SSW
